Regional Weather Roundup
Issued by NWS

Home | Current Version | Previous Version | Graphics & Text | Print | Product List | Glossary On
Versions: 1 2 3 4 5 6 7 8 9 10 11 12 13 14 15 16 17 18 19 20 21 22 23 24 25 26 27 28
000
ASUS45 KCYS 220110
RWRWY

WYOMING REGIONAL WEATHER ROUNDUP
NATIONAL WEATHER SERVICE CHEYENNE WY
600 PM MST TUE NOV 21 2017

NOTE:  "FAIR" INDICATES FEW OR NO CLOUDS BELOW 12,000 FEET
WITH NO SIGNIFICANT WEATHER AND/OR OBSTRUCTIONS TO VISIBILITY.

WYZ001-220200-
YELLOWSTONE NATIONAL PARK

CITY           SKY/WX    TMP DP  RH WIND       PRES   REMARKS
LK YELLOWSTONE   N/A     32  32 100 CALM      30.37F
W YELLOWSTONE  NOT AVBL

$$
WYZ002>013-054>058-071-098>099-220200-
NORTHERN WYOMING

CITY           SKY/WX    TMP DP  RH WIND       PRES   REMARKS
JACKSON        FAIR      41  35  79 S9        30.35F
CODY           MOCLDY    40  31  70 CALM      30.19R
GREYBULL       FAIR      39  30  70 SE3       30.21R
WORLAND        FAIR      36  30  79 CALM      30.20R
SHERIDAN       FAIR      32  31  96 SW7       30.13F WCI  26
BUFFALO        FAIR      34  24  67 S7        30.15F WCI  28
GILLETTE       FAIR      28  23  81 S9        30.17S WCI  19
HULETT         FAIR      32  27  80 W6        30.18S WCI  26
NEWCASTLE      FAIR      28  21  74 E3        30.22F

$$
WYZ014>020-022>026-101>103-220200-
CENTRAL WYOMING

CITY           SKY/WX    TMP DP  RH WIND       PRES   REMARKS
BIG PINEY      FAIR      36  31  82 NE8       30.37R WCI  30
PINEDALE       FAIR      34  30  86 NW5       30.38S WCI  30
DUBOIS         FAIR      37  30  75 N17       30.28F WCI  28
LANDER         FAIR      44  30  57 SW3       30.21R
RIVERTON       FAIR      35  28  75 CALM      30.22R
CASPER         FAIR      40  32  73 W14       30.20F WCI  32
DOUGLAS        FAIR      32  27  81 SE7       30.21S WCI  26

$$
WYZ021-027>030-104>119-220200-
SOUTHERN WYOMING

CITY           SKY/WX    TMP DP  RH WIND       PRES   REMARKS
EVANSTON       FAIR      43  37  79 W9        30.40R
KEMMERER       FAIR      37  34  87 SW9       30.40S WCI  31
FORT BRIDGER   CLOUDY    43  38  82 W5        30.42R
ROCK SPRINGS   FAIR      42  33  70 W17       30.36R
DIXON          FAIR      35  32  88 CALM      30.40R
RAWLINS        FAIR      42  34  73 W21       30.31R
SARATOGA       FAIR      36  32  87 S3        30.34R
LARAMIE        FAIR      30  26  85 W6        30.26S WCI  24
CHEYENNE       FAIR      34  33  96 SW15      30.26F WCI  24
TORRINGTON     FAIR      35  26  69 SE7       30.23F WCI  29
PINE BLUFFS    FAIR      34  28  80 MISG      30.27F

$$




USA.gov is the U.S. government's official web portal to all federal, state and local government web resources and services.